• Processing (Info)

  • MPEC 2016-B17 : 2016 AV192

    The following Minor Planet Electronic Circular may be linked-to from your own Web pages, but must not otherwise be redistributed electronically.

    A form allowing access to any MPEC is at the bottom of this page.


    Read MPEC 2016-B16 Read MPEC 2016-B18


    M.P.E.C. 2016-B17                                Issued 2016 Jan. 17, 16:20 UT
    
         The Minor Planet Electronic Circulars contain information on unusual
             minor planets and routine data on comets.  They are published
        on behalf of Division F of the International Astronomical Union by the
              Minor Planet Center, Smithsonian Astrophysical Observatory,
                              Cambridge, MA 02138, U.S.A.
    
                 Prepared using the Tamkin Foundation Computer Network
    
                                  MPC@CFA.HARVARD.EDU
                URL https://www.minorplanetcenter.net/    ISSN 1523-6714
    
                                      2016 AV192
    
    Observations:
         K16AJ2V* C2016 01 14.31342 07 06 05.66 +25 51 21.8          21.2 VqEB017G96
         K16AJ2V  C2016 01 14.32212 07 06 07.24 +25 50 39.5          21.2 VqEB017G96
         K16AJ2V  C2016 01 14.33082 07 06 08.83 +25 49 57.6          21.5 VqEB017G96
         K16AJ2V  C2016 01 14.33953 07 06 10.39 +25 49 14.9          21.1 VqEB017G96
         K16AJ2V  C2016 01 15.30288 07 09 31.91 +24 35 36.7          21.2 RoEB017926
         K16AJ2V  C2016 01 15.30787 07 09 32.79 +24 35 13.4          21.2 RoEB017926
         K16AJ2V  C2016 01 15.31286 07 09 33.59 +24 34 51.5          21.1 RoEB017926
         K16AJ2V  C2016 01 15.35552 07 09 40.54 +24 31 40.2          21.3 VqEB017G96
         K16AJ2V  C2016 01 15.35620 07 09 40.62 +24 31 37.2          22.2 VqEB017G96
         K16AJ2V  C2016 01 15.35830 07 09 40.98 +24 31 27.7                qEB017G96
         K16AJ2V  C2016 01 15.35897 07 09 41.14 +24 31 24.6                qEB017G96
         K16AJ2V  C2016 01 15.36108 07 09 41.44 +24 31 15.6                qEB017G96
         K16AJ2V  C2016 01 15.36175 07 09 41.60 +24 31 12.5          21.4 VqEB017G96
         K16AJ2V  C2016 01 15.36386 07 09 41.88 +24 31 02.5          21.1 VqEB017G96
         K16AJ2V  C2016 01 15.36453 07 09 42.03 +24 31 00.0          21.6 VqEB017G96
         K16AJ2V  C2016 01 17.45181 07 15 52.59 +22 10 46.1          21.3 VqEB017G96
         K16AJ2V  C2016 01 17.45267 07 15 52.69 +22 10 42.6                qEB017G96
         K16AJ2V  C2016 01 17.45352 07 15 52.84 +22 10 39.8                qEB017G96
         K16AJ2V  C2016 01 17.45438 07 15 52.95 +22 10 36.8                qEB017G96
    
    Observer details:
    926 Tenagra II Observatory.  Observers M. Schwartz, P. R. Holvorcem.  Measurer
        M. Schwartz.  0.81-m f/7 Ritchey-Chretien + CCD.
    G96 Mt. Lemmon Survey.  Observers J. A. Johnson, A. R. Gibbs.  Measurers
        E. J. Christensen, D. C. Fuls, A. R. Gibbs, A. D. Grauer, J. A. Johnson,
        R. A. Kowalski, S. M. Larson, G. J. Leonard, R. G. Matheny, R. L. Seaman,
        F. C. Shelly.  1.5-m reflector + CCD.
    
    Orbital elements:
    2016 AV192                                               Earth MOID = 0.0435 AU
    Epoch 2016 Jan. 13.0 TT = JDT 2457400.5                 MPC
    M  21.38943              (2000.0)            P               Q
    n   0.50417479     Peri.  127.74996     +0.44625545     -0.89083805
    a   1.5634427      Node   295.54194     +0.78848647     +0.43644391
    e   0.3784728      Incl.    5.42015     +0.42325543     +0.12619144
    P   1.95           H   25.8           G   0.15           U   8
    Residuals in seconds of arc
    160114 G96  0.1-  0.2+    160115 G96  0.1+  0.0     160115 G96  0.2+  0.1+
    160114 G96  0.1-  0.1-    160115 G96  0.3-  0.1+    160117 G96  0.1+  0.2-
    160114 G96  0.0   0.1+    160115 G96  0.1-  0.0     160117 G96  0.3-  0.4-
    160114 G96  0.4-  0.5-    160115 G96  0.6+  0.1-    160117 G96  0.1+  0.1+
    160115 926  0.6-  0.8+    160115 G96  0.1-  0.3+    160117 G96  0.1-  0.4+
    160115 926  0.4+  0.4-    160115 G96  0.6+  0.2+
    160115 926  0.3+  0.2-    160115 G96  0.3-  0.3-
    
    Ephemeris:
    2016 AV192               a,e,i = 1.56, 0.38, 5                   q = 0.9717
    Date    TT    R. A. (2000) Decl.     Delta      r     Elong.  Phase     V
    2015 12 18    22 10 28.5 +43 26 13   0.06584 0.9874    91.0    85.2    22.9
    ...
    2016 01 02    05 08 55.1 +52 42 39   0.05309 1.0272   144.9    33.4    20.9
    ...
    2016 01 10    06 45 47.6 +32 46 26   0.07507 1.0566   166.7    12.4    21.0
    ...
    2016 01 16    07 11 45.6 +23 46 06   0.09906 1.0817   171.2     8.0    21.5
    2016 01 17    07 14 42.2 +22 39 35   0.1035  1.0861   171.1     8.0    21.6
    2016 01 18    07 17 23.5 +21 38 19   0.1080  1.0905   170.8     8.3    21.7
    ...
    2016 01 24    07 29 46.2 +16 58 05   0.1371  1.1184   167.4    11.1    22.4
    ...
    2016 02 01    07 40 47.8 +13 17 54   0.1807  1.1581   161.6    15.5    23.3
    ...
    2016 02 16    07 56 43.0 +10 11 36   0.2779  1.2381   150.9    22.8    24.6
    
    A. U. Tomatic                (C) Copyright 2016 MPC           M.P.E.C. 2016-B17
    

    Read MPEC 2016-B16 Read MPEC 2016-B18


    MPEC number:

    Enter an MPEC number in one of the following forms:

    • 1997-B01 (the full form)
    • J97B01 (the packed version of the full form)
    • B01 (the abbreviated form)